Regional Weather Roundup
Issued by NWS

Home | Current Version | Previous Version | Graphics & Text | Print | Product List | Glossary Off
Versions: 1 2 3 4 5 6 7 8 9 10 11 12 13 14 15 16 17 18 19 20 21 22 23 24 25 26 27 28 29 30 31 32 33 34 35 36 37 38 39 40 41 42 43 44 45 46 47 48 49 50

000
ASUS43 KMKX 182021
RWRWI

WISCONSIN REGIONAL WEATHER ROUNDUP
NATIONAL WEATHER SERVICE MILWAUKEE/SULLIVAN WI
300 PM CDT THU SEP 18 2014

NOTE: "FAIR" INDICATES FEW OR NO CLOUDS BELOW 12,000 FEET WITH NO
SIGNIFICANT WEATHER AND/OR OBSTRUCTIONS TO VISIBILITY.

WIZ001-002-006>008-014>016-023>028-182100-
NORTHWEST WISCONSIN

CITY           SKY/WX    TMP DP  RH WIND       PRES   REMARKS
SUPERIOR ARPT  CLOUDY    49  44  80 E9        30.12F
ASHLAND        CLOUDY    51  45  79 N8        30.14F
HAYWARD        CLOUDY    55  49  80 S7        30.11F
SIREN          MOSUNNY   62  52  69 S9        30.08F
RICE LAKE      CLOUDY    58  50  75 SE10      30.13F
LADYSMITH      CLOUDY    58  51  75 SE5       30.15F
EAU CLAIRE     NOT AVBL
MENOMONIE      CLEAR     65  54  66 SE10      30.09F
NEW RICHMOND   SUNNY     67  54  63 SE7       30.07F
OSCEOLA        SUNNY     67  56  67 SE8       30.09F
$$

WIZ003>005-009-010-017-018-182100-
NORTH CENTRAL WISCONSIN

CITY           SKY/WX    TMP DP  RH WIND       PRES   REMARKS
WOODRUFF       CLOUDY    52  45  78 S5        30.15S
RHINELANDER    CLOUDY    52  43  71 S7        30.16F
EAGLE RIVER    CLOUDY    53  42  65 S5        30.14F
LAND O LAKES   CLOUDY    54  43  67 S5        30.15S
PHILLIPS       CLOUDY    52  47  82 S6        30.14S
TOMAHAWK       MOSUNNY   54  45  71 S3        30.16S
MEDFORD        CLOUDY    52  47  82 SE8       30.14F
MERRILL        PTSUNNY   55  46  72 S3        30.15F
$$

WIZ029-030-035-036-043>047-182100-
CENTRAL WISCONSIN

CITY           SKY/WX    TMP DP  RH WIND       PRES   REMARKS
WAUSAU         PTSUNNY   55  46  71 S9        30.15F
MOSINEE        CLOUDY    54  48  82 S6        30.17F
MARSHFIELD     CLOUDY    54  48  80 SE8       30.15F
STEVENS POINT  CLOUDY    51  44  78 E5        30.17F
WAUPACA        CLOUDY    57  47  69 SE6       30.18F
WAUTOMA        SUNNY     60  48  64 VRB7      30.16F
WISC RAPIDS    CLOUDY    58  48  69 E7        30.16F
CAMP DOUGLAS   PTSUNNY   59  55  88 VRB6      30.14F
$$

WIZ011>013-019>022-031-037>040-048>050-182100-
NORTHEAST WISCONSIN

CITY           SKY/WX    TMP DP  RH WIND       PRES   REMARKS
ANTIGO         CLOUDY    52  44  75 S7        30.16F
STURGEON BAY   CLOUDY    54  45  71 N5        30.18F
GREEN BAY      CLOUDY    56  46  69 VRB3      30.18F
MANITOWOC      CLOUDY    57  48  72 N6        30.18F
APPLETON       PTSUNNY   55  45  67 VRB5      30.18F
CLINTONVILLE   CLOUDY    54  45  71 E6        30.17F
OSHKOSH        PTSUNNY   57  49  74 CALM      30.16F
$$

WIZ032>034-041-042-053>061-182100-
SOUTHWEST WISCONSIN

CITY           SKY/WX    TMP DP  RH WIND       PRES   REMARKS
LA CROSSE      SUNNY     69  55  60 E7        30.09F
SPARTA         MOSUNNY   64  52  64 E6        30.12F
VIROQUA        FAIR      66  55  66 SE5       30.11F
BOSCOBEL       MOSUNNY   69  55  60 N8        30.11F
PRAIRIE DU CHI MOSUNNY   69  53  55 E3        30.08F
PLATTEVILLE    FAIR      69  53  57 CALM      30.11F
$$

WIZ056-057-062-063-064-067-068-182100-
SOUTH CENTRAL WISCONSIN

CITY           SKY/WX    TMP DP  RH WIND       PRES   REMARKS
BARABOO/DELLS  MOSUNNY   60  49  68 SE6       30.14F
LONE ROCK      SUNNY     68  53  58 E6        30.12F
WATERTOWN      MOSUNNY   63  54  72 SE5       30.14F
MADISON        MOSUNNY   62  51  67 E5        30.14F
MIDDLETON      FAIR      63  52  66 SE6       30.14F
MONROE         SUNNY     66  52  59 E7        30.12F
JANESVILLE     MOSUNNY   66  52  59 E6        30.13F
$$

WIZ051-052-058>065-066-070>072-182100-
SOUTHEAST WISCONSIN

CITY           SKY/WX    TMP DP  RH WIND       PRES   REMARKS
MILWAUKEE      CLOUDY    59  51  75 N9        30.16F
WAUKESHA       MOSUNNY   61  52  72 E7        30.16F
MILWAUKEE/TIMM CLOUDY    57  48  72 NE5       30.17F
RACINE         CLOUDY    59  52  77 N13       30.17F
BURLINGTON     PTSUNNY   62  52  70 E6        30.14F
KENOSHA        CLOUDY    61  54  77 NE6       30.16S
FOND DU LAC    PTSUNNY   58  49  72 CALM      30.16F
SHEBOYGAN      CLOUDY    59  48  67 E7        30.17F
WEST BEND      MOSUNNY   59  50  72 NE5       30.15F
JUNEAU         PTSUNNY   60  52  74 E5        30.16F
$$

LSZ147-162-182100-
LAKE SUPERIOR

STATION/POSITION TIME  TEMP    WIND        PRES    WAVE
                       AIR SEA DIR/SP/G            HT/PER
                 (UTC) (F)     (DEG/KT/KT) (MB)    (FT/S)
W MID LAKE BUOY  1950   44 47   80/  8/  8 1021.9F   1/ 3
DEVILS ISLAND    2000   45      60/  8/  9 1021.4F
PORT WING        1900   51      30/ 14/ 17 1020.7F
SAXON HARBOR     1940   49      30/  4/  7 1021.0F
$$

LMZ867-665-643>646-182100-
LAKE MICHIGAN

STATION/POSITION TIME  TEMP    WIND        PRES    WAVE
                       AIR SEA DIR/SP/G            HT/PER
                 (UTC) (F)     (DEG/KT/KT) (MB)    (FT/S)
N MID LAKE BUOY  1950   51 59   50/  8/ 10 1022.6F   1/ 3
NORTHPORT PIER   1900   52      60/  5/  8 1022.7F
KEWAUNEE LAKESHO 2000   54      70/  5/  8 1021.2F
SHEBOYGAN LAKESH 2000   51 49   30/ 12/ 13 1022.2F
PORT WASHINGTON  1900   56      50/  9/ 13 1022.7F
ATWATER BUOY     2000   56      40/ 10/ 14 1022.2F
MILWAUKEE LAKESH 2000   55      40/ 11/ 12   N/A
S MID LAKE BUOY  1950   63 66   30/  2/  2 1020.6F   2/ 7
KENOSHA   LAKESH 2000   56      20/ 12/ 16 1020.7F
$$

TC  - TEMPERATURE IN CELSIUS
VSB - VISIBILITY IN STATUTE MILES
WCI - WIND CHILL INDEX
HX  - HEAT INDEX



USA.gov is the U.S. government's official web portal to all federal, state and local government web resources and services.